EW6329 Weather Reports


Display with metric or nautical units.
time (UTC)temp
F
wind
direction
speed
MPH
gust
MPH
rain 1hr
in
rain 24hr
in
rain mn
in
humidity
%
barometer
mb
20260508174533 69 316 0.0 1.0 0.00 0.00 0.00 49 1012.3
20260508173036 69 60 0.0 2.0 0.00 0.00 0.00 48 1012.6
20260508171548 68 323 0.0 1.0 0.00 0.00 0.00 50 1012.9
20260508170105 68 96 0.0 2.0 0.00 0.00 0.00 55 1013.3
20260508164509 67 334 0.0 2.0 0.00 0.00 0.00 57 1013.5
20260508163032 66 335 0.0 2.0 0.00 0.00 0.00 55 1013.9
20260508161535 65 335 0.0 2.0 0.00 0.00 0.00 60 1014.0
20260508160042 64 213 0.0 2.0 0.00 0.00 0.00 63 1014.1
20260508154554 63 213 0.0 2.0 0.00 0.00 0.00 65 1014.1
20260508153002 61 284 0.0 2.0 0.00 0.00 0.00 67 1014.3
20260508151512 59 284 0.0 2.0 0.00 0.00 0.00 76 1014.6
20260508150025 57 302 0.0 1.0 0.00 0.00 0.00 87 1014.8
20260508144535 55 300 0.0 2.0 0.00 0.00 0.00 92 1014.8
20260508143054 55 315 0.0 2.0 0.00 0.00 0.00 95 1015.0
20260508141606 54 315 0.0 0.0 0.00 0.00 0.00 95 1015.1
20260508140019 53 315 0.0 0.0 0.00 0.00 0.00 95 1014.9
20260508134531 52 315 0.0 0.0 0.00 0.00 0.00 95 1014.9
20260508133037 51 315 0.0 0.0 0.00 0.00 0.00 95 1015.2
20260508131550 50 315 0.0 0.0 0.00 0.00 0.00 95 1015.4
20260508130104 49 315 0.0 0.0 0.00 0.00 0.00 94 1015.3
20260508124513 48 315 0.0 0.0 0.00 0.00 0.00 94 1015.3
20260508123026 48 315 0.0 0.0 0.00 0.00 0.00 93 1015.4
20260508121542 47 315 0.0 2.0 0.00 0.00 0.00 93 1015.3
20260508120053 47 315 0.0 0.0 0.00 0.00 0.00 92 1015.2
20260508114503 47 315 0.0 0.0 0.00 0.00 0.00 91 1015.0
20260508113017 47 315 0.0 0.0 0.00 0.00 0.00 91 1014.8
20260508111529 47 315 0.0 0.0 0.00 0.00 0.00 90 1014.4
20260508110043 47 315 0.0 0.0 0.00 0.00 0.00 90 1014.5
20260508104605 47 315 0.0 0.0 0.00 0.00 0.00 89 1014.3
20260508103006 47 315 0.0 0.0 0.00 0.00 0.00 88 1014.5
20260508101522 48 315 0.0 0.0 0.00 0.00 0.00 88 1014.5
20260508100035 48 315 0.0 0.0 0.00 0.00 0.00 88 1014.5
20260508094607 48 315 0.0 0.0 0.00 0.00 0.00 88 1014.3
20260508093100 48 315 0.0 0.0 0.00 0.00 0.00 87 1014.3
20260508091510 48 315 0.0 0.0 0.00 0.00 0.00 87 1014.3
20260508090025 49 315 0.0 0.0 0.00 0.00 0.00 87 1014.2
20260508084535 49 315 0.0 0.0 0.00 0.00 0.00 86 1014.0
20260508083048 49 315 0.0 0.0 0.00 0.00 0.00 86 1014.0
20260508081619 50 315 0.0 0.0 0.00 0.00 0.00 86 1014.0
20260508080011 50 315 0.0 0.0 0.00 0.00 0.00 86 1014.0
20260508074525 50 315 0.0 0.0 0.00 0.00 0.00 87 1014.1
20260508073042 51 315 0.0 0.0 0.00 0.00 0.00 87 1014.2
20260508071557 51 315 0.0 0.0 0.00 0.00 0.00 87 1014.2
20260508070002 51 315 0.0 0.0 0.00 0.00 0.00 87 1014.4
20260508064515 52 315 0.0 0.0 0.00 0.00 0.00 86 1014.5
20260508063038 52 315 0.0 0.0 0.00 0.00 0.00 86 1014.7
20260508061543 52 315 0.0 0.0 0.00 0.00 0.00 86 1014.6
20260508060055 52 315 0.0 0.0 0.00 0.00 0.00 86 1014.6
20260508054504 52 315 0.0 0.0 0.00 0.01 0.00 87 1014.7
20260508053016 52 315 0.0 0.0 0.00 0.01 0.00 86 1014.7
20260508051533 53 315 0.0 0.0 0.00 0.01 0.00 86 1014.8
20260508050038 53 315 0.0 0.0 0.00 0.01 0.00 86 1014.8
20260508044549 53 315 0.0 0.0 0.00 0.01 0.01 85 1014.8
20260508043058 53 315 0.0 0.0 0.00 0.01 0.01 85 1014.9
20260508041506 54 315 0.0 0.0 0.00 0.01 0.01 83 1014.9
20260508040019 54 315 0.0 0.0 0.00 0.01 0.01 80 1014.9
20260508034533 55 315 0.0 0.0 0.00 0.01 0.01 75 1014.8
20260508033047 55 315 0.0 0.0 0.00 0.01 0.01 75 1014.7
20260508031559 56 315 0.0 0.0 0.00 0.01 0.01 74 1015.0
20260508030010 57 315 0.0 0.0 0.00 0.01 0.01 73 1014.9
20260508024541 57 315 0.0 0.0 0.00 0.01 0.01 69 1014.9
20260508023036 58 315 0.0 0.0 0.00 0.01 0.01 68 1014.7
20260508021554 59 315 0.0 0.0 0.00 0.01 0.01 66 1014.5
20260508020106 59 315 0.0 0.0 0.00 0.01 0.01 66 1014.3
20260508014512 60 315 0.0 0.0 0.00 0.01 0.01 64 1014.2
20260508013024 61 315 0.0 0.0 0.00 0.01 0.01 62 1014.1
20260508011539 61 315 0.0 0.0 0.00 0.01 0.01 62 1014.1
20260508010052 62 315 0.0 0.0 0.00 0.01 0.01 61 1014.0
20260508004502 63 315 0.0 0.0 0.00 0.01 0.01 60 1013.9
20260508003015 64 315 0.0 0.0 0.00 0.01 0.01 60 1014.0
20260508001531 65 315 0.0 0.0 0.00 0.01 0.01 59 1013.9
20260508000042 65 315 0.0 0.0 0.00 0.01 0.01 56 1013.7
20260507234555 66 315 0.0 1.0 0.00 0.01 0.01 53 1013.5
20260507233011 66 315 0.0 2.0 0.00 0.01 0.01 50 1013.8
20260507231527 66 315 0.0 2.0 0.00 0.01 0.01 47 1013.6
20260507230031 66 315 0.0 2.0 0.00 0.01 0.01 48 1013.7
20260507224545 66 304 0.0 3.0 0.00 0.01 0.01 45 1013.7
20260507223059 67 313 0.0 3.0 0.00 0.01 0.01 46 1013.6
20260507221513 67 309 0.0 2.0 0.00 0.01 0.01 46 1013.7
20260507220021 67 248 0.0 2.0 0.00 0.01 0.01 46 1013.8
20260507214541 66 306 0.0 2.0 0.00 0.02 0.01 44 1013.6
20260507213044 67 327 0.0 3.0 0.00 0.02 0.01 46 1013.6
20260507211559 66 295 0.0 2.0 0.00 0.02 0.01 47 1013.7
20260507210005 66 277 0.0 3.0 0.00 0.02 0.01 44 1013.8
20260507204518 66 282 1.0 3.0 0.00 0.06 0.01 46 1013.9
20260507203038 66 277 0.0 2.0 0.00 0.06 0.01 47 1014.1
20260507201554 66 277 0.0 2.0 0.00 0.06 0.01 47 1014.3
20260507200109 65 71 0.0 3.0 0.00 0.06 0.01 48 1014.6
20260507194507 65 313 0.0 3.0 0.00 0.06 0.01 47 1014.4
20260507193022 65 234 0.0 2.0 0.00 0.06 0.01 47 1014.5
20260507191532 65 323 0.0 5.0 0.00 0.06 0.01 47 1014.8
20260507190056 65 287 0.0 3.0 0.00 0.06 0.01 44 1014.8
20260507184602 64 320 0.0 2.0 0.00 0.06 0.01 56 1014.8
20260507183010 65 319 0.0 3.0 0.00 0.06 0.01 51 1015.0
20260507181524 64 286 0.0 2.0 0.00 0.06 0.01 54 1015.1
20260507180037 63 288 0.0 3.0 0.00 0.06 0.01 51 1015.2